Theta_e
329 331 330 330 331 329 328 328 327 328 328 328 327 326 329 332 325 322 333 337 330 332 335 333 334 335 335 335 335 335 335 335 335 337 345 348 347 354 362 359 356 356 355 354 355 355 355 353 349 350 348 344 344 343 338 335 336 337 338 339 339 338 336 335 335 334 335 334 334 333 332 332 331 332 332 332 332 331 330 330 329 329 328 328 328 328 329
329 330 330 330 330 329 328 329 329 330 330 329 329 329 330 332 329 329 337 337 334 334 335 335 334 334 335 335 335 334 333 333 334 333 340 347 347 350 357 361 360 359 358 359 359 358 356 351 349 351 347 345 345 340 334 335 337 338 338 339 337 334 335 336 336 335 335 335 334 333 333 332 332 332 333 333 333 331 330 330 329 329 329 329 328 328 328
324 329 330 328 330 329 327 328 330 330 330 330 330 331 330 331 331 331 333 333 334 335 335 335 334 335 336 336 334 334 333 332 333 332 334 341 346 347 352 360 362 361 361 363 361 359 354 349 350 349 346 346 344 337 333 336 339 337 338 339 335 329 332 336 336 335 335 334 335 334 333 333 332 332 333 334 333 332 330 329 329 329 328 328 328 328 328
322 328 329 328 329 329 325 325 328 328 328 328 329 331 331 330 330 331 331 329 331 334 334 335 335 336 337 336 334 334 333 333 333 333 335 340 343 346 350 357 361 362 363 364 363 359 352 350 350 348 346 346 341 335 334 337 338 338 339 339 335 331 334 337 336 335 334 334 334 334 334 333 333 333 334 334 333 332 331 329 329 328 328 327 328 328 329
322 327 329 328 327 324 321 324 328 329 329 329 329 331 332 333 332 330 329 329 333 335 334 334 334 335 334 334 333 334 335 337 337 338 341 341 340 343 347 353 359 362 363 363 362 359 353 351 350 347 346 344 338 334 335 336 337 339 339 339 337 336 337 338 335 334 333 333 333 333 333 333 333 333 333 334 333 332 330 328 327 327 327 327 327 328 328
322 326 328 327 324 319 321 328 331 332 331 330 330 330 331 333 334 333 332 333 334 334 333 334 334 334 333 333 334 335 336 337 338 338 340 341 340 342 346 351 356 359 361 361 361 359 354 351 350 347 345 341 336 334 335 336 337 337 336 337 337 338 338 337 334 332 332 332 332 332 333 333 334 334 334 334 334 331 329 328 327 327 327 327 328 328 327
323 325 326 323 320 322 327 332 333 332 331 331 331 331 332 332 333 334 335 334 333 334 334 334 333 332 333 333 333 335 334 337 339 338 339 342 344 345 347 352 355 358 360 359 359 358 355 351 349 346 342 338 335 334 335 337 337 336 335 335 336 337 337 335 333 332 332 332 332 332 333 334 335 335 335 335 334 330 328 327 327 327 327 327 327 327 327
324 323 323 323 325 331 334 336 334 333 334 333 331 330 332 333 333 333 335 334 334 335 334 333 332 332 333 333 333 333 334 337 340 339 339 342 344 346 350 353 354 358 359 358 357 356 353 350 346 343 340 337 336 336 337 337 337 337 336 335 335 336 336 335 333 332 332 332 332 333 333 334 335 335 335 336 333 329 327 327 328 328 327 326 326 326 326
325 321 320 325 329 331 334 336 335 334 334 333 331 329 331 334 334 333 335 334 334 334 333 332 332 332 333 333 332 332 334 337 340 340 339 341 344 347 350 352 355 356 357 356 355 354 351 347 343 341 338 337 336 337 337 335 336 337 337 336 334 335 336 335 332 331 331 331 332 332 332 333 333 333 334 334 332 329 328 328 328 327 326 325 326 326 325
327 323 320 324 325 324 329 335 336 334 333 333 334 331 330 333 334 332 334 334 333 334 333 331 332 334 333 332 332 332 334 337 339 340 340 341 344 348 350 351 354 355 355 356 355 353 349 345 341 339 337 336 336 336 335 335 336 336 336 335 334 335 337 335 332 331 331 331 332 333 332 332 332 333 333 332 331 329 328 328 328 328 327 326 326 327 326
325 323 321 322 322 323 330 335 335 333 333 333 334 329 328 332 334 332 332 333 333 333 332 331 333 334 332 330 332 334 334 334 336 339 341 341 345 348 350 351 353 355 356 356 354 350 346 341 339 338 336 336 336 334 334 334 334 334 335 334 333 334 336 335 332 331 331 331 333 333 331 330 331 331 331 330 331 330 329 328 327 327 327 327 327 328 327
325 324 322 323 324 326 331 333 332 332 334 335 332 325 325 330 333 332 331 333 333 332 331 332 333 333 332 331 332 334 334 334 336 341 344 344 346 349 350 352 354 356 356 355 351 346 342 339 338 337 336 335 334 334 335 334 333 333 333 333 333 334 334 333 332 331 330 332 333 333 331 330 330 331 330 331 331 330 328 327 326 326 326 327 327 328 327
323 323 322 322 325 331 333 332 332 334 334 331 326 323 328 332 332 332 332 332 332 330 332 332 332 333 333 331 332 333 333 334 339 344 346 346 347 348 348 352 356 356 356 354 349 343 341 339 337 336 334 333 333 334 334 334 334 334 332 331 332 333 333 333 331 330 331 333 333 332 330 330 330 330 329 330 329 327 327 327 327 328 328 327 328 328 327
323 323 322 320 324 333 335 332 333 333 329 328 327 331 335 333 331 332 332 331 332 331 331 331 332 333 332 331 333 333 331 336 342 344 345 346 345 345 348 353 355 355 354 351 346 342 340 338 336 335 334 334 335 335 334 334 335 334 332 330 330 331 332 332 331 331 333 333 331 329 328 330 332 331 329 328 326 325 326 327 329 330 330 328 329 328 325
324 322 321 319 323 333 335 331 333 332 331 333 337 337 335 332 332 332 332 331 332 331 331 331 332 332 331 332 333 333 333 339 342 344 346 346 344 346 350 352 351 350 349 346 342 340 339 337 336 334 333 335 335 334 333 334 333 333 333 331 330 332 332 331 331 333 334 332 330 329 329 330 332 332 331 329 327 326 327 328 330 331 331 330 330 328 325
324 320 322 325 329 334 334 332 334 334 333 336 338 336 334 333 333 332 332 332 332 332 333 334 333 333 332 332 334 335 337 339 342 345 347 345 343 345 346 346 346 345 345 344 340 337 337 335 333 333 334 336 335 331 329 330 330 332 334 333 332 331 332 333 335 335 333 330 329 331 332 331 332 332 332 330 328 327 329 330 330 330 330 330 330 329 328
329 327 331 335 335 334 333 333 334 334 333 334 334 334 334 334 334 333 332 331 332 332 333 334 335 335 333 333 336 337 337 339 343 346 346 344 343 342 339 340 343 342 342 342 337 334 336 336 335 337 337 336 337 337 336 337 338 338 339 337 334 332 334 337 336 333 329 327 329 332 332 330 330 330 330 329 328 328 329 330 330 329 329 329 329 328 328
334 333 334 334 333 333 332 332 332 332 332 332 333 335 336 336 335 335 334 334 334 334 334 335 336 335 332 335 338 336 336 339 342 345 345 343 341 338 336 340 342 340 339 340 337 338 342 342 340 338 333 333 340 343 342 343 342 339 338 340 340 338 338 337 333 330 329 329 330 332 331 329 329 329 329 329 328 327 328 328 329 328 327 326 326 326 325
331 331 332 334 333 332 332 332 332 331 330 331 333 334 335 336 336 336 337 338 338 337 336 336 337 336 333 335 337 336 337 340 343 344 345 343 341 341 342 344 344 340 338 338 338 340 341 339 338 336 332 334 341 341 340 341 340 337 338 341 341 338 336 333 331 332 331 328 328 328 327 327 328 328 328 327 326 327 327 327 327 327 324 323 323 323 323
332 331 332 333 332 331 332 332 330 329 329 330 332 333 334 335 334 334 336 336 337 337 335 335 337 337 334 335 338 340 342 343 344 346 347 347 346 345 343 341 341 340 339 338 338 340 340 340 340 338 334 334 338 338 337 339 339 340 340 339 337 334 333 332 332 333 331 327 326 325 325 326 327 328 328 326 324 325 326 326 326 325 323 322 322 322 322
331 332 333 334 331 331 331 330 329 328 329 330 331 331 332 333 333 334 335 334 335 336 335 335 337 337 336 339 339 339 340 342 342 345 347 346 343 339 335 333 333 334 334 335 338 341 340 337 335 332 329 329 330 332 335 336 336 338 338 336 335 333 332 332 332 331 329 327 327 326 327 328 327 326 325 324 322 322 323 322 322 322 322 322 322 321 322
330 332 333 332 331 332 332 330 328 328 329 330 331 330 330 331 332 334 334 334 336 337 336 337 339 337 338 339 336 335 338 340 340 342 343 339 334 331 328 328 328 328 328 329 331 332 330 327 325 325 326 326 324 325 330 334 335 337 336 334 332 331 329 330 331 330 328 327 327 328 328 327 326 324 324 323 322 322 322 321 321 320 321 321 320 321 322
330 330 329 329 330 331 331 329 327 328 330 331 330 328 328 329 329 332 334 335 338 339 337 338 339 338 338 337 334 335 338 336 336 338 337 332 330 330 329 329 328 326 325 325 325 324 323 324 325 326 328 329 327 326 330 333 334 336 336 333 330 328 327 328 329 329 328 328 327 326 326 326 326 326 326 325 324 323 322 321 320 320 321 321 320 320 321
328 326 325 326 327 328 327 326 326 328 329 330 329 327 327 328 328 329 332 335 338 339 337 337 337 337 337 335 334 336 337 335 333 334 332 330 329 330 334 335 329 324 323 324 323 322 322 324 326 327 329 331 331 329 331 333 333 334 335 333 330 329 328 329 329 329 328 327 326 325 325 326 327 327 327 327 326 324 322 320 319 319 320 321 321 322 322
324 322 321 323 323 324 325 325 325 326 328 328 327 327 327 327 327 328 330 334 337 338 336 335 335 335 335 333 333 335 337 335 331 329 330 332 330 329 333 335 329 321 321 322 322 324 326 328 330 330 329 330 331 330 330 331 332 333 333 333 332 331 330 329 329 329 328 326 326 326 327 327 328 328 327 327 326 325 323 321 320 320 321 321 321 322 322
321 319 319 320 321 322 323 324 325 326 327 326 326 326 326 326 326 327 329 332 334 336 335 334 333 333 332 333 333 334 334 333 330 328 330 332 330 327 330 334 330 326 324 324 325 328 329 329 330 329 328 329 330 330 330 330 330 331 332 332 331 329 328 327 327 328 328 327 327 328 327 327 327 327 326 325 325 325 323 322 321 321 322 321 321 321 321
318 318 318 319 320 321 322 324 325 325 324 324 324 324 324 324 324 325 327 328 332 335 334 332 331 330 331 332 333 333 332 332 332 331 331 330 327 327 331 334 334 332 331 330 326 324 324 325 326 328 329 329 327 326 327 328 327 328 329 330 328 327 326 325 324 325 327 328 328 328 327 327 327 326 325 325 324 323 323 322 321 322 322 321 320 320 319
317 317 317 319 321 322 322 323 323 323 323 322 322 322 323 323 324 324 325 326 329 332 332 331 330 331 332 332 331 333 335 334 331 331 330 328 328 331 334 335 334 332 333 331 324 320 322 325 327 329 330 328 324 324 327 327 326 327 328 328 327 327 327 326 325 325 327 329 328 327 326 326 325 324 322 322 322 322 323 322 322 321 321 320 319 318 317
317 318 320 321 321 321 321 321 321 321 322 322 322 322 322 322 322 323 324 324 326 329 331 330 329 330 331 331 331 334 335 332 329 330 331 330 332 335 335 334 332 332 333 331 327 324 326 328 329 330 328 326 324 325 327 327 327 328 329 328 328 327 327 328 327 327 328 329 328 325 324 323 322 322 321 321 322 322 322 322 321 320 320 319 317 318 317
320 320 320 320 320 320 320 320 320 322 322 323 323 323 322 322 322 322 323 324 325 327 329 330 329 330 331 330 331 332 330 328 330 334 335 335 336 335 333 332 332 332 332 332 330 330 330 329 329 330 328 326 326 327 328 328 329 329 329 329 329 327 326 327 328 328 328 328 326 323 322 322 322 322 322 321 321 321 320 319 318 317 317 317 315 314 315
320 320 320 319 320 320 320 321 323 324 324 324 324 324 323 323 323 322 323 324 324 326 329 330 329 330 330 329 329 328 327 328 333 337 337 336 335 333 331 331 331 331 332 333 332 331 329 328 328 328 326 325 326 328 328 328 329 329 328 328 328 326 324 325 326 327 327 327 325 323 323 323 322 321 320 319 317 316 315 315 313 313 313 313 311 310 309
321 320 320 321 321 322 323 323 324 323 323 323 323 323 323 323 323 323 323 323 324 326 328 329 331 331 330 328 327 328 330 332 336 337 336 334 331 328 328 330 331 331 332 333 331 330 329 328 328 327 324 323 325 326 327 328 328 328 327 327 327 326 324 323 324 325 326 325 324 323 323 323 322 320 318 317 316 315 314 313 313 312 311 311 310 308 306
321 321 321 322 323 324 324 324 323 322 323 322 323 323 322 322 323 322 321 322 323 324 326 331 334 333 329 328 330 334 337 337 337 336 334 330 327 327 329 332 333 332 331 330 329 329 329 328 327 326 325 324 325 326 326 327 327 326 325 326 327 326 324 322 323 324 325 324 323 323 323 322 320 319 317 316 316 315 315 315 314 312 311 310 309 307 305
321 321 322 323 323 322 322 322 322 322 323 322 322 322 322 323 324 324 323 323 323 324 326 332 334 333 332 334 335 335 336 335 335 335 333 328 326 327 330 330 330 329 328 327 327 328 328 327 326 325 325 325 325 325 325 326 325 325 325 326 325 324 323 322 322 324 324 323 323 323 321 319 318 317 316 315 315 315 315 315 314 312 311 310 308 306 306
320 320 320 320 320 320 321 322 323 323 323 322 322 322 323 323 324 324 324 324 325 324 326 330 333 334 335 335 333 331 332 334 335 335 332 328 326 327 328 328 327 326 326 327 327 327 327 326 325 325 325 325 324 324 324 324 324 324 324 324 323 323 323 322 322 322 323 322 322 321 320 318 317 316 315 315 315 315 314 314 313 312 311 309 308 306 306
319 318 318 318 318 319 320 322 323 323 322 322 323 323 323 324 324 325 325 325 325 326 328 330 332 332 333 332 330 330 332 334 334 332 330 328 327 328 328 328 327 326 326 327 326 325 325 325 325 324 324 323 323 323 323 323 323 323 322 321 321 321 321 321 321 321 321 320 320 319 318 317 316 315 314 314 314 314 313 313 312 311 310 309 308 307 306
317 317 317 317 317 318 319 320 322 322 322 322 323 323 324 324 324 324 325 324 325 328 330 331 330 330 330 331 331 332 332 332 331 331 330 329 328 327 328 327 327 327 326 326 324 324 324 324 323 322 322 322 323 323 322 321 321 321 320 320 320 320 320 320 319 319 319 319 318 317 316 315 315 314 314 313 313 312 312 312 311 310 309 308 307 306 306
318 318 318 318 318 318 319 320 321 322 322 322 322 323 323 324 325 325 324 324 326 328 329 329 330 330 331 330 329 329 329 329 328 328 328 327 326 326 326 325 325 325 325 324 323 323 322 322 321 321 321 321 322 322 320 319 319 319 320 320 319 319 319 318 318 317 317 317 316 315 315 315 314 314 313 312 311 311 311 310 309 308 307 307 306 306 305
319 319 319 319 320 320 321 321 322 323 322 322 323 323 323 324 325 325 325 326 328 329 329 330 330 330 329 328 327 326 327 327 326 326 326 326 325 325 325 324 324 324 323 323 322 321 320 320 320 320 320 320 320 319 318 317 317 318 318 318 317 317 316 316 316 316 315 315 315 314 314 313 313 313 312 311 311 310 309 309 308 307 307 306 305 305 305
319 319 319 320 320 320 321 321 322 323 323 323 324 325 326 327 327 327 328 329 330 329 329 330 330 329 328 327 326 325 324 324 325 325 325 325 324 324 323 323 322 321 321 321 321 319 318 318 319 319 318 318 318 317 316 316 316 316 316 316 315 315 314 314 314 314 313 313 313 312 311 311 311 310 310 310 309 308 308 307 306 306 306 306 305 304 304
318 318 319 320 320 320 321 322 323 324 325 325 326 328 329 330 329 329 329 329 329 329 329 328 327 326 324 323 323 322 321 321 322 323 323 323 323 323 322 321 321 320 320 320 319 317 316 317 318 318 317 317 316 316 315 314 314 315 315 314 314 314 314 313 313 313 313 312 312 311 311 311 310 309 309 309 308 307 307 306 306 306 305 305 304 304 304
318 319 320 320 320 321 321 322 324 325 325 326 327 328 329 330 330 329 329 328 327 326 325 324 322 322 322 323 322 322 322 322 322 322 323 323 323 322 321 320 320 319 319 319 317 316 316 316 317 316 315 315 315 314 313 312 313 314 314 313 313 313 313 312 312 312 311 311 311 310 310 309 309 308 308 307 307 307 306 306 305 305 304 304 304 304 304
319 319 319 318 318 320 320 321 323 325 326 326 327 328 328 328 328 327 326 326 326 325 322 319 319 321 323 324 323 322 323 323 322 322 322 322 321 321 321 320 319 318 318 318 317 316 316 315 315 315 315 314 313 310 309 309 311 312 312 311 311 311 310 310 310 310 309 309 309 309 308 308 308 307 307 306 306 306 305 305 305 304 304 304 304 304 304
319 319 318 317 317 319 321 322 323 324 324 324 326 326 326 326 326 324 324 325 326 324 323 322 321 322 322 322 322 322 322 321 321 320 320 320 320 320 320 319 318 316 316 316 316 315 314 314 314 313 312 310 308 306 306 308 311 311 310 310 310 310 309 309 309 309 308 308 308 307 307 307 307 306 306 306 305 305 305 304 304 304 304 304 304 304 304
317 318 318 317 317 319 322 324 324 324 323 324 325 325 324 325 324 324 324 325 324 324 323 323 323 323 322 322 321 321 321 320 320 320 319 319 319 319 318 317 316 315 314 314 314 314 314 312 310 307 306 305 304 304 306 308 309 309 309 309 309 309 309 309 308 308 308 307 307 306 306 305 305 305 305 305 304 304 304 303 304 304 304 304 304 304 303
317 317 317 316 318 320 323 323 323 323 323 324 324 324 324 324 325 324 324 324 324 323 323 323 323 323 323 322 321 321 320 321 321 320 318 318 318 318 317 317 315 313 312 312 312 313 311 308 305 304 303 303 303 305 307 308 307 307 307 308 308 308 308 308 308 307 307 306 306 305 305 304 304 304 304 304 303 303 303 303 303 303 303 303 303 303 302
319 319 318 317 318 321 322 321 321 321 321 322 322 322 323 324 325 325 325 325 324 323 323 323 323 323 323 322 322 321 321 321 320 319 318 318 317 316 315 315 313 311 309 311 312 312 309 305 304 304 303 303 304 306 307 306 306 306 306 306 307 307 307 307 307 306 306 305 305 305 304 304 303 304 303 303 303 303 303 303 303 303 303 303 302 302 301
320 320 320 319 319 320 320 320 320 320 320 319 319 319 321 322 323 323 323 324 324 323 323 323 323 323 322 322 321 320 320 320 320 319 317 317 316 315 314 313 310 309 310 311 311 310 308 306 305 304 304 304 305 306 306 305 305 305 305 305 305 306 305 306 306 306 305 305 304 304 303 303 303 303 303 303 303 302 303 302 302 302 302 302 301 301 300
318 319 318 318 318 318 319 319 319 319 318 318 318 319 321 321 320 320 320 322 322 322 322 322 322 322 322 322 321 319 318 318 318 317 317 316 315 314 313 312 309 309 310 311 310 310 309 308 306 305 304 304 306 306 305 304 304 304 303 304 304 304 304 305 305 304 304 304 304 303 303 303 303 303 303 303 302 302 303 302 302 302 302 302 301 301 301
318 318 317 317 317 318 318 318 319 318 318 318 318 319 320 320 320 320 321 321 321 321 321 321 321 321 321 321 320 319 318 317 317 316 316 315 314 313 313 312 310 309 310 310 311 310 309 309 308 307 306 306 306 306 305 304 304 304 303 303 303 303 303 304 304 303 303 303 303 303 303 303 303 303 303 302 302 302 302 302 301 301 300 300 300 301 301
318 318 318 317 318 318 318 318 318 318 317 317 318 319 320 319 319 320 321 320 320 320 320 320 320 320 320 320 320 319 318 318 317 316 315 314 314 313 313 312 311 310 310 310 311 311 310 309 308 308 307 306 306 306 305 304 304 303 302 302 302 302 303 303 302 302 302 302 302 302 302 302 302 302 302 301 301 301 301 301 301 300 300 299 299 299 300
318 318 318 318 318 317 318 318 318 318 319 319 319 320 320 319 318 319 320 319 319 319 319 319 319 319 319 319 319 319 318 317 316 316 315 314 314 313 313 313 312 311 310 310 310 311 310 309 308 308 307 307 307 307 306 304 304 303 302 302 302 302 302 302 302 302 302 302 301 302 302 302 302 302 301 301 301 301 300 300 300 300 300 299 298 298 299
Wind_Speed
19 19 19 19 18 17 17 18 21 22 21 21 18 16 16 13 11 9 3 4 11 13 10 10 10 8 8 8 9 11 11 11 12 12 13 15 18 20 20 22 25 28 29 31 33 34 34 34 32 31 28 25 23 22 18 15 15 15 14 13 13 12 11 11 11 11 11 11 11 11 11 12 13 13 12 13 14 14 14 15 15 16 17 17 18 18 18
20 22 24 23 18 15 16 19 20 20 20 21 19 18 19 18 16 13 9 9 13 11 8 12 13 10 9 11 11 12 13 14 15 15 15 17 19 21 21 22 25 27 29 31 32 33 34 33 32 31 28 25 24 21 16 15 17 16 14 15 14 12 11 12 12 11 11 12 11 12 12 12 13 13 13 14 14 14 14 15 16 17 18 17 17 17 17
16 20 23 21 17 16 19 21 21 20 19 20 20 18 18 18 16 14 13 13 13 8 6 12 12 6 4 8 11 13 15 15 16 17 16 16 18 21 22 24 26 28 29 30 32 34 35 35 33 31 28 27 27 23 18 17 18 16 15 15 14 12 11 13 13 12 11 12 12 13 13 13 13 13 13 14 15 15 15 15 16 16 16 17 16 16 16
10 16 17 15 15 19 22 22 21 21 20 19 17 15 16 16 13 10 9 10 9 6 7 10 8 4 7 10 11 12 13 14 16 15 13 13 15 17 20 23 26 29 31 32 33 35 36 36 34 31 29 29 27 23 19 19 18 15 15 15 13 12 12 13 13 12 12 12 13 13 13 13 13 13 14 14 15 15 14 14 15 15 15 16 16 16 16
10 16 16 14 16 18 17 16 19 21 20 18 17 16 15 12 8 7 7 7 7 5 5 6 6 7 11 11 11 11 12 13 14 13 13 14 15 16 18 21 24 28 30 32 34 36 36 37 35 32 31 29 24 21 20 19 17 15 16 14 12 12 13 13 13 13 13 13 13 13 14 14 14 14 14 14 14 14 13 14 14 14 15 16 16 15 15
10 15 15 14 15 14 11 11 15 18 17 17 17 15 12 6 3 6 9 8 7 6 4 5 8 10 11 11 12 12 13 13 14 15 15 15 14 15 16 19 22 25 27 29 31 34 36 36 35 32 30 27 23 20 19 18 18 17 16 15 13 14 14 14 14 13 13 13 13 13 13 14 14 14 14 14 14 13 13 13 13 14 15 15 16 17 17
10 11 11 12 13 12 10 9 10 10 12 15 16 14 12 9 8 10 11 10 9 7 6 7 10 10 10 12 13 13 13 13 13 14 14 13 12 13 15 18 20 23 24 26 28 31 33 34 32 30 28 24 20 18 18 18 19 19 17 15 15 15 16 16 15 14 14 14 14 13 13 14 14 14 14 14 13 13 13 13 13 13 14 13 14 16 16
9 8 10 10 7 5 6 6 7 8 10 12 13 12 12 12 11 11 11 10 9 8 8 10 9 9 9 12 15 15 14 12 11 12 11 10 11 12 14 17 19 22 23 24 27 30 32 31 30 27 25 22 19 18 18 19 19 18 17 16 16 17 18 18 16 15 15 14 14 13 13 14 14 14 14 13 14 14 13 14 13 13 13 14 13 13 15
8 9 11 9 5 5 6 6 7 8 8 9 9 9 10 10 10 9 9 9 8 7 9 9 6 5 7 11 14 15 13 10 10 10 8 8 9 11 12 15 18 20 21 22 26 29 30 29 27 25 23 21 19 18 18 18 18 18 18 18 18 19 20 19 16 16 15 14 14 14 14 14 14 14 13 13 14 14 13 14 14 13 15 16 15 15 18
8 10 11 10 9 9 8 8 7 7 9 8 5 6 7 8 9 10 10 9 7 5 8 8 4 3 7 9 10 9 9 8 7 7 6 6 7 9 12 14 16 18 19 22 28 30 30 28 26 24 22 20 19 19 18 18 19 19 20 20 20 20 21 20 17 16 15 14 14 14 14 14 14 12 12 14 14 14 14 15 15 14 16 17 15 15 18
9 10 10 9 10 9 8 9 10 13 14 9 4 5 7 7 10 14 13 10 7 6 7 6 3 3 7 7 3 2 5 6 6 7 6 6 7 9 12 14 16 18 20 24 28 29 29 28 25 23 21 19 19 19 18 18 19 20 21 21 21 20 20 19 17 15 14 14 14 14 14 14 13 13 13 14 15 15 15 16 16 16 15 15 14 14 15
9 10 9 8 8 6 5 8 9 10 12 8 6 7 6 3 5 7 6 5 5 5 6 5 4 5 8 7 5 2 5 6 5 7 7 8 9 11 13 14 16 19 22 25 28 29 29 28 24 21 20 18 18 19 19 19 19 20 20 20 20 19 19 18 17 16 15 14 13 13 13 13 13 13 14 13 14 15 16 18 19 18 16 15 14 15 15
11 11 10 9 7 2 1 6 7 7 9 8 7 6 2 2 1 1 2 4 5 4 6 6 6 7 10 10 9 8 9 7 7 8 9 10 11 11 13 16 18 21 23 25 27 27 28 27 23 19 18 17 18 19 20 20 21 20 18 17 17 20 20 19 18 16 15 14 13 13 14 13 14 15 15 14 15 16 18 20 19 17 17 17 14 14 15
10 10 10 11 8 1 1 5 8 8 8 7 4 2 2 0 2 1 3 6 7 6 8 9 8 11 13 11 10 12 11 8 9 10 11 11 11 12 14 17 20 22 22 24 26 25 24 23 20 16 16 17 18 19 21 23 23 22 20 17 18 21 21 20 19 17 17 17 14 14 14 13 14 16 15 15 16 17 18 19 17 17 18 17 15 15 16
9 10 11 11 6 1 3 6 6 5 5 2 2 3 2 1 3 3 3 5 7 8 11 12 12 14 16 13 12 12 10 7 8 11 12 13 13 14 16 19 21 21 22 24 25 23 20 19 17 16 17 18 18 18 20 23 25 25 23 21 20 21 21 21 20 18 17 16 13 12 12 12 13 15 14 14 16 16 16 17 17 16 17 16 15 16 15
8 8 7 4 1 3 4 3 2 2 1 2 3 2 2 2 3 5 6 7 8 10 12 14 15 16 18 16 13 11 8 7 10 11 13 14 14 15 16 18 18 19 21 23 23 20 17 16 16 16 17 18 19 21 21 22 25 27 25 22 21 21 22 22 20 17 16 14 11 10 11 11 12 13 13 14 16 16 15 16 16 16 15 15 15 16 14
3 2 1 3 4 3 3 3 2 1 2 4 3 3 4 4 5 7 9 11 11 11 13 15 14 17 19 17 13 12 11 12 12 12 13 14 14 14 15 15 16 16 17 19 19 16 12 12 13 14 15 16 20 23 22 20 21 21 20 20 21 23 23 23 21 19 17 16 13 11 11 10 10 11 13 14 16 15 15 15 15 15 15 15 16 16 15
2 3 3 3 3 2 2 3 3 3 4 5 5 6 6 6 7 8 11 13 13 14 15 15 15 17 18 16 15 16 15 13 12 11 12 13 12 12 12 13 15 15 14 15 16 12 10 10 11 13 15 17 18 18 16 15 16 16 16 17 19 21 22 21 17 14 15 14 11 9 8 8 10 12 13 14 15 16 16 15 15 16 17 19 21 19 18
2 2 3 2 2 1 0 2 4 6 8 8 8 8 8 8 9 10 11 12 14 15 16 16 16 17 18 17 16 17 15 13 12 11 11 12 11 11 10 11 13 13 13 12 12 10 10 12 14 15 16 16 15 13 10 9 11 14 15 15 16 18 21 18 13 10 10 10 8 7 8 11 12 13 13 14 16 17 17 16 17 20 23 23 22 20 20
4 4 3 2 1 2 2 3 5 7 9 10 10 9 9 9 10 11 11 12 15 16 17 17 17 17 18 16 14 12 10 11 11 10 11 14 14 13 12 11 11 11 11 10 8 6 7 8 9 10 11 9 8 8 8 7 7 8 9 11 12 13 13 11 9 9 8 8 10 12 13 13 13 13 13 15 15 15 16 17 20 24 25 22 21 19 19
5 3 2 0 3 6 6 6 8 9 10 10 11 11 10 10 11 11 12 14 14 15 16 16 13 12 13 10 9 7 7 10 11 9 10 14 14 13 12 11 9 9 9 7 6 6 7 7 7 8 9 9 8 7 7 7 6 7 8 9 9 9 8 7 9 9 7 9 12 13 11 10 12 15 16 16 16 15 18 20 22 25 25 22 21 20 17
5 1 4 4 3 4 2 7 9 10 10 10 10 11 11 12 13 13 13 14 12 12 13 10 7 7 9 9 9 9 10 11 10 9 10 13 11 8 7 7 6 6 6 4 4 5 7 8 8 9 10 11 12 10 8 6 5 7 10 10 9 9 8 7 9 9 9 10 8 8 10 11 13 16 17 16 16 17 19 21 21 22 22 21 21 18 15
1 6 8 7 6 5 5 9 11 10 10 9 9 11 12 13 15 14 14 13 10 7 6 6 5 6 9 9 8 10 14 14 10 7 7 8 6 4 5 6 7 6 6 6 7 7 8 8 9 8 7 9 10 9 8 7 6 7 10 11 9 9 10 10 11 10 9 8 8 10 12 12 12 13 14 15 17 18 19 19 19 19 19 18 19 18 14
3 7 9 8 8 9 11 13 12 10 8 8 10 12 14 15 16 15 15 13 9 5 2 3 5 6 8 9 7 8 13 16 14 10 5 4 7 8 7 7 8 7 6 5 6 8 9 8 8 6 5 5 6 6 7 7 6 7 9 10 10 11 10 11 11 11 10 10 10 11 11 10 9 9 10 13 16 18 18 17 16 16 16 16 17 17 15
7 8 9 7 7 10 13 15 13 10 7 9 12 14 15 16 17 17 16 13 9 7 5 6 7 6 6 9 8 8 10 13 14 14 12 10 12 13 10 8 7 7 6 6 7 7 6 4 4 4 4 5 6 6 6 6 6 8 9 10 10 11 10 8 9 10 10 10 9 8 8 8 8 8 8 10 13 16 17 16 14 13 14 14 14 15 14
10 10 10 9 9 11 12 13 12 11 10 12 15 16 17 18 18 18 17 14 10 10 12 12 10 8 8 9 10 11 11 10 12 15 17 15 13 11 10 9 7 5 6 7 6 5 3 1 2 3 3 3 4 6 6 7 8 9 9 9 9 10 11 10 10 9 9 8 7 7 7 7 7 7 9 10 11 12 13 13 11 10 10 10 10 11 11
10 10 11 11 10 10 9 9 10 13 15 17 18 18 19 19 18 18 18 16 12 10 13 15 13 12 11 12 13 14 15 16 17 17 16 13 11 9 9 9 8 7 7 7 6 4 3 3 3 3 3 5 8 9 7 8 10 10 9 10 10 10 11 12 10 9 9 8 7 6 5 6 7 7 7 9 11 10 8 7 7 7 8 8 8 9 11
9 8 8 8 9 9 9 10 12 15 17 18 18 18 19 19 19 20 20 18 14 12 12 14 15 14 14 15 16 15 17 18 17 15 13 11 10 10 10 10 9 8 8 6 5 5 4 4 3 3 5 9 11 10 7 8 10 10 10 11 10 9 10 10 8 8 7 7 7 7 7 8 10 9 9 9 9 7 5 4 3 4 6 8 9 11 14
7 6 5 7 9 11 12 13 13 14 15 15 16 17 18 18 19 20 20 19 18 16 14 15 17 17 17 18 17 15 15 16 14 12 11 11 11 11 10 10 10 8 8 6 4 4 4 5 5 5 8 12 11 8 8 9 10 9 9 10 10 10 11 9 7 7 7 6 8 11 12 11 11 9 7 7 6 5 4 4 3 1 2 5 6 8 10
5 7 8 10 11 12 13 13 13 13 13 14 15 16 16 17 18 19 19 19 19 17 15 15 18 17 14 16 18 18 17 17 14 12 12 12 12 12 11 11 10 8 8 7 5 5 5 6 6 6 8 9 7 7 8 9 8 8 8 8 9 11 13 11 9 7 7 8 10 12 11 10 8 6 5 4 5 7 8 7 6 5 4 3 4 6 9
9 11 12 13 12 12 13 12 11 12 13 13 14 15 15 16 17 17 17 18 18 18 17 17 18 17 13 14 19 21 19 17 14 13 13 13 14 13 12 11 10 8 8 8 7 6 6 7 7 8 9 9 7 7 8 7 7 7 8 7 7 9 11 12 12 10 8 8 10 10 8 7 6 5 4 3 5 8 10 9 7 6 6 7 10 13 14
12 13 13 12 11 11 11 11 12 13 15 15 16 16 16 17 17 17 17 17 17 18 18 16 16 18 18 18 20 19 17 17 17 15 15 15 15 14 13 11 9 9 9 9 8 6 6 6 7 8 10 10 8 7 7 6 7 8 8 7 6 7 9 11 13 11 9 8 8 7 6 6 6 5 5 5 4 5 4 4 4 4 4 4 8 12 13
12 12 12 11 11 12 13 14 14 15 16 17 17 17 17 17 18 18 18 17 17 17 17 15 14 16 19 20 18 14 15 18 18 16 16 16 15 13 12 10 9 9 9 8 7 6 5 6 7 7 7 7 6 6 6 6 7 8 8 6 6 7 8 9 9 8 7 8 8 7 8 9 8 8 9 9 7 3 0 3 5 4 3 2 4 7 8
12 13 13 13 14 15 16 17 17 17 17 18 18 18 18 18 18 17 17 17 17 16 15 15 15 15 16 17 15 13 13 15 15 15 15 15 13 12 11 10 9 9 8 7 6 6 5 6 7 6 5 5 4 3 3 4 6 6 6 6 6 6 5 6 7 7 8 10 11 11 11 10 9 7 7 6 5 3 2 3 5 5 4 3 3 4 6
13 14 16 16 16 17 17 17 17 18 19 19 20 20 19 19 18 18 17 16 15 16 15 13 15 18 19 18 16 13 11 11 12 13 13 12 11 11 11 10 9 8 7 6 6 5 4 5 6 6 5 3 2 3 5 5 5 7 7 7 6 5 4 6 8 9 8 9 10 11 11 10 9 8 6 3 1 2 4 5 6 6 6 5 4 4 5
15 16 18 18 18 18 18 18 18 19 20 20 21 21 21 20 20 18 17 16 14 14 12 10 13 16 17 17 17 15 13 11 12 12 12 11 11 11 11 9 9 8 7 6 5 5 4 6 8 8 6 4 4 6 8 8 8 8 8 6 5 4 5 7 10 11 9 7 7 8 9 9 10 10 7 4 4 7 7 6 6 7 7 6 6 5 5
19 19 20 21 20 20 20 20 20 20 20 21 22 22 22 21 20 18 16 15 13 9 7 7 10 11 12 13 14 14 12 11 11 11 11 11 10 10 9 8 8 8 8 7 7 6 6 7 8 7 6 5 5 6 8 9 9 7 5 3 4 4 3 4 5 6 7 6 5 6 6 5 6 7 6 5 6 8 7 7 7 7 6 5 7 7 5
20 20 21 21 21 21 21 20 20 20 22 22 22 22 22 20 18 16 15 13 10 8 8 8 9 11 12 13 12 12 11 11 11 11 10 9 9 9 8 7 7 6 7 7 7 6 5 5 4 4 4 4 3 3 5 6 6 3 3 4 4 2 2 2 1 3 4 5 5 5 5 5 6 8 7 7 6 6 6 7 8 7 5 5 6 6 4
21 20 20 20 20 20 20 20 20 20 21 21 21 21 20 18 16 15 13 10 9 9 10 11 13 15 14 13 12 12 11 10 10 10 9 9 10 10 9 9 9 8 8 8 7 6 4 4 3 3 4 3 2 2 4 8 8 4 3 5 4 3 4 5 5 5 6 7 8 9 8 9 10 10 9 8 8 7 6 7 7 6 5 5 6 5 5
23 22 22 21 21 21 20 20 20 20 19 19 19 18 15 13 12 10 8 8 9 10 11 13 15 16 15 15 16 15 11 9 9 10 9 10 11 10 8 8 8 8 8 8 7 6 7 8 5 3 4 4 3 3 5 7 7 3 2 4 5 5 6 6 6 7 7 7 9 10 9 8 9 8 7 8 9 7 6 6 7 6 6 7 7 6 6
25 23 22 22 22 21 20 20 19 19 17 16 14 12 9 8 9 10 10 11 11 12 12 12 13 14 14 13 13 11 8 7 9 9 9 9 10 10 9 8 8 8 10 11 9 8 10 9 6 4 4 4 5 6 5 4 4 3 4 5 4 5 7 7 7 8 8 8 9 9 8 7 8 7 7 8 9 7 6 6 7 7 8 8 7 7 7
24 23 22 21 21 21 21 20 18 17 14 11 9 9 8 8 9 11 13 13 12 13 12 11 10 10 9 8 8 8 8 9 10 11 10 10 11 12 12 11 11 13 14 12 9 7 8 6 5 6 6 4 6 9 8 5 4 5 7 6 5 6 8 9 9 10 10 11 11 11 10 10 10 9 8 9 9 8 8 8 8 8 9 8 8 7 7
22 22 23 22 21 21 21 19 16 14 12 9 7 8 9 9 10 12 13 12 11 11 10 10 9 9 9 9 9 9 10 11 12 12 10 9 10 11 12 11 12 14 13 10 6 6 6 5 7 10 10 9 9 10 7 4 4 6 8 7 8 9 10 10 11 11 12 12 12 12 11 11 10 10 10 10 10 9 9 9 9 9 9 9 8 7 7
20 20 20 21 21 21 19 17 15 14 11 9 8 9 9 9 9 10 11 10 9 9 8 8 8 9 9 10 10 10 11 11 12 12 11 10 9 9 8 8 9 12 12 9 6 6 8 7 8 10 10 11 11 9 6 4 6 7 7 8 9 10 10 11 11 11 11 11 11 11 10 10 10 9 10 10 10 10 10 10 9 9 9 9 8 8 7
20 19 18 18 19 17 13 11 11 10 7 6 8 9 8 7 7 8 8 9 9 8 8 9 9 9 10 10 10 10 11 11 11 12 12 12 11 10 9 7 8 10 11 9 8 8 9 9 8 7 6 8 9 7 4 5 6 7 8 9 10 11 12 12 12 11 11 11 11 10 10 10 9 9 9 10 10 10 10 10 10 9 9 9 8 8 7
17 16 16 18 18 14 9 6 6 5 5 4 5 7 7 6 6 7 7 8 8 7 7 8 8 9 9 9 9 9 9 9 9 10 10 11 12 12 11 9 9 10 10 9 8 9 9 8 5 2 3 4 4 2 3 5 6 6 7 9 10 11 13 13 13 12 12 12 11 11 10 10 10 9 9 10 10 10 10 11 10 9 9 8 8 8 8
13 13 14 15 14 11 8 6 5 6 6 5 4 4 4 4 6 7 7 7 7 7 6 7 7 7 8 8 9 10 10 10 9 8 9 9 10 12 12 10 12 12 10 7 9 12 10 3 2 2 3 3 3 2 2 5 5 6 7 8 9 11 12 13 13 12 12 12 12 11 10 10 10 9 10 10 10 10 10 10 10 10 9 9 10 10 10
9 9 10 11 11 8 7 6 7 8 9 8 7 6 6 5 6 7 8 7 7 6 5 6 6 6 7 8 8 9 10 11 10 9 10 10 11 12 12 11 12 12 10 7 12 16 11 2 2 2 3 4 5 1 4 6 5 6 8 7 8 10 11 12 12 12 12 12 12 11 11 11 11 10 11 11 11 10 10 10 10 10 10 10 10 10 10
9 8 7 7 7 7 7 8 9 10 10 9 8 8 8 7 7 8 8 8 8 6 6 6 6 6 8 9 9 8 9 10 10 11 12 11 10 11 12 12 11 10 9 8 11 14 11 6 3 2 2 4 3 2 7 7 7 8 8 8 8 9 10 11 12 12 12 12 12 11 11 11 11 11 11 10 10 10 11 10 10 11 11 11 10 9 9
6 5 4 3 2 2 4 6 7 8 8 6 6 8 9 8 8 8 7 7 6 6 6 6 6 6 7 8 8 8 8 9 10 10 12 12 10 12 15 16 12 8 8 8 9 12 11 8 7 8 5 2 1 5 8 8 7 7 8 8 9 9 11 13 14 13 12 10 11 11 11 11 11 11 11 10 10 10 11 10 11 13 15 14 11 9 10
8 6 4 3 4 3 2 1 2 4 5 5 6 7 7 5 6 7 7 6 5 5 6 6 7 7 7 7 8 8 8 9 9 10 11 12 11 12 14 15 14 11 9 8 8 12 13 10 10 11 8 4 3 6 9 9 10 11 11 11 11 11 11 12 13 14 14 12 11 11 11 11 11 11 11 11 10 11 11 11 11 13 14 14 13 11 10
8 7 5 5 6 6 4 4 3 2 3 5 5 3 3 1 2 5 7 6 4 5 5 6 6 7 7 7 7 8 8 9 10 11 11 12 12 13 14 14 14 13 12 10 9 11 12 11 11 11 10 8 7 8 10 11 12 12 11 11 11 12 11 11 11 12 14 14 12 11 11 11 11 11 11 11 11 11 12 12 12 11 11 12 13 12 11
Wind_Direction
238 250 247 236 229 228 229 224 223 225 228 231 232 236 237 235 242 245 182 190 250 260 268 273 285 299 297 285 274 272 272 268 263 246 218 215 230 228 214 206 202 196 189 186 184 182 180 178 178 178 180 183 185 184 184 189 198 204 207 210 217 222 225 229 231 230 235 243 246 248 253 260 265 269 274 280 287 296 299 294 292 296 298 295 293 293 293
226 233 239 242 241 236 234 234 232 230 228 226 227 233 238 237 241 238 209 212 245 258 267 275 283 291 290 286 280 274 273 270 265 257 233 216 222 226 218 209 203 197 191 187 184 182 180 179 178 179 181 182 182 183 192 201 201 203 207 213 225 233 230 228 229 228 236 244 246 246 249 258 266 271 276 281 289 297 295 291 294 297 297 296 296 296 296
231 230 231 233 239 242 241 239 237 236 235 232 228 231 236 239 243 238 224 228 243 251 264 272 276 271 249 263 267 266 271 272 265 259 250 234 227 224 218 209 202 197 193 189 186 184 184 183 181 181 180 181 186 194 202 202 200 203 207 213 231 246 237 227 226 228 237 244 247 248 250 258 268 273 277 280 289 297 297 296 298 298 297 297 297 296 296
245 247 243 236 241 246 245 245 243 239 238 240 240 236 236 242 246 234 221 234 249 256 265 267 263 239 242 261 271 273 275 273 266 261 257 251 241 232 222 211 203 198 194 191 189 187 187 185 183 181 180 183 194 201 197 195 200 206 207 211 227 241 235 226 226 231 238 244 249 251 253 260 267 271 275 279 286 293 295 298 300 298 296 296 297 299 299
242 246 244 240 244 246 242 240 241 240 239 240 242 237 234 243 257 249 237 250 268 278 274 270 267 266 272 282 289 290 289 284 275 266 260 260 255 244 230 217 209 204 198 194 191 188 186 185 182 180 181 185 191 192 189 193 199 202 206 212 223 233 230 225 227 234 241 247 251 253 256 261 265 269 273 277 282 287 291 296 298 298 297 298 300 299 297
243 242 236 237 241 240 240 244 245 246 246 246 247 245 239 232 236 262 270 279 285 282 264 264 273 275 279 284 285 287 288 281 272 264 259 257 254 244 232 219 212 208 204 200 194 187 184 183 180 179 183 187 188 187 189 195 200 204 209 213 221 230 229 225 228 236 240 245 250 254 259 261 263 268 270 271 276 283 288 292 294 295 298 301 302 298 295
243 244 233 233 237 238 245 258 263 259 254 255 257 258 256 250 239 247 259 262 261 265 265 266 269 269 271 275 277 279 277 269 262 260 255 248 240 233 223 213 208 206 204 202 197 189 183 179 175 175 179 183 185 188 192 197 204 210 212 213 220 229 229 227 229 233 237 243 249 255 261 262 262 266 267 266 272 279 284 285 286 290 296 300 302 303 305
243 242 231 229 244 257 247 253 263 256 249 250 253 254 254 255 252 245 242 245 245 252 261 261 260 266 275 276 272 265 260 256 252 251 252 245 232 223 214 207 202 200 200 199 195 189 181 175 172 173 175 177 182 190 195 199 207 212 212 216 224 229 230 229 229 231 235 244 251 255 261 262 262 265 263 260 266 275 278 278 279 284 287 289 290 294 301
236 241 238 230 233 240 223 223 238 241 241 240 240 248 246 242 246 241 233 242 247 251 263 263 258 280 287 278 268 254 238 235 242 246 250 244 227 214 205 201 196 195 197 194 188 183 178 173 172 171 173 177 185 192 198 203 208 210 212 221 230 232 230 229 229 231 234 243 251 255 260 262 264 266 262 260 266 271 270 272 277 278 282 287 286 286 295
230 243 249 238 236 237 224 214 208 214 239 242 226 242 237 213 228 243 241 246 249 245 259 258 248 284 279 271 267 242 209 208 220 224 229 223 208 198 193 190 188 188 189 184 180 178 175 172 171 171 174 182 188 194 202 208 211 212 215 225 232 231 229 230 233 236 239 245 251 252 256 263 266 265 264 265 266 264 265 273 278 277 282 289 289 288 297
229 237 245 240 244 246 229 226 220 216 230 232 188 226 234 201 218 240 240 238 235 232 245 242 219 256 266 277 318 123 180 212 209 200 204 195 184 183 182 180 180 179 179 177 176 175 172 169 170 173 179 187 194 200 205 210 214 219 222 227 231 230 230 233 236 240 246 251 253 252 256 264 264 261 266 270 266 262 266 275 278 279 283 288 285 285 292
240 242 246 244 251 251 237 253 250 218 209 197 182 227 247 199 213 239 229 209 215 233 249 245 229 245 261 290 340 345 230 233 204 187 185 175 172 173 171 171 172 171 171 172 172 171 170 170 173 178 184 193 201 207 211 215 221 226 229 231 232 230 231 235 237 242 250 254 252 251 259 264 261 261 269 271 267 266 270 274 277 279 282 285 281 282 288
240 243 248 247 249 254 192 236 231 196 192 201 215 241 281 83 124 121 156 206 232 253 262 255 248 257 264 276 293 279 249 221 187 181 176 168 169 168 167 167 166 166 169 172 172 171 173 175 178 183 192 200 208 214 218 223 227 231 235 238 237 234 234 235 238 245 251 248 244 254 266 265 259 264 269 268 271 277 277 277 277 275 280 285 280 277 287
241 244 251 250 248 316 64 223 213 201 210 217 223 311 2 260 232 182 191 229 257 279 281 279 276 274 271 269 271 265 248 215 188 182 174 171 169 165 167 169 166 166 170 173 173 173 176 183 187 192 200 207 215 223 227 232 236 237 240 244 244 240 236 235 240 246 244 237 242 261 268 260 258 267 271 271 282 290 284 277 274 271 276 282 276 276 286
240 242 252 259 254 151 173 211 201 197 216 204 81 33 3 234 246 267 241 247 270 283 285 287 286 283 279 272 262 253 239 212 198 187 175 173 169 162 168 172 169 168 170 173 176 177 180 190 199 205 212 216 224 233 236 239 243 245 245 246 244 241 238 239 245 245 237 236 249 264 261 255 261 269 270 275 288 292 280 272 271 268 270 272 271 278 284
253 245 244 262 337 101 144 165 128 144 167 48 39 334 305 281 262 268 268 273 282 285 284 285 285 284 279 269 256 245 225 210 213 195 174 172 171 167 173 173 170 172 173 174 179 185 192 206 214 215 217 223 235 246 245 242 245 248 248 244 242 243 243 242 238 225 219 234 253 257 254 258 266 268 267 276 287 287 274 269 271 270 270 270 271 275 275
294 298 105 97 84 90 126 132 115 112 85 56 22 331 314 302 285 281 282 285 285 283 281 281 279 277 272 261 245 239 228 212 206 190 171 169 171 172 176 175 173 176 177 179 188 195 203 214 218 215 219 234 249 253 249 245 244 245 245 243 244 243 239 233 226 219 228 249 256 246 249 262 270 271 272 278 287 286 274 269 271 273 275 277 276 275 271
72 80 89 96 88 73 111 126 105 49 41 38 23 5 345 329 318 305 294 291 290 286 281 279 275 269 264 253 238 237 231 209 191 179 169 166 171 175 173 170 175 182 183 186 195 203 209 220 231 236 244 256 260 254 250 250 249 250 250 246 243 236 227 222 221 227 246 260 252 236 253 276 281 281 279 281 288 286 277 275 276 275 275 278 283 287 285
162 205 231 195 137 129 21 74 59 35 23 19 18 8 349 335 321 304 296 295 290 282 275 271 269 264 259 248 235 229 220 196 175 167 159 152 154 162 163 160 168 182 192 196 199 210 226 241 255 258 256 261 264 263 267 270 268 266 256 238 231 231 229 226 222 219 231 237 230 243 278 289 285 283 284 288 292 290 284 282 281 280 280 280 286 296 299
217 224 228 217 182 183 144 80 48 28 13 7 10 6 348 330 311 298 296 293 285 279 273 268 265 264 260 245 223 206 192 174 165 160 148 140 141 151 163 164 157 159 176 191 193 199 217 229 242 247 246 252 265 278 285 283 275 264 241 219 220 228 226 220 206 194 206 241 272 292 298 289 280 279 283 291 296 292 284 277 274 278 282 283 285 293 301
251 211 152 107 245 207 159 93 48 22 9 3 3 1 352 338 326 315 301 290 283 280 277 270 265 264 257 230 190 175 174 170 168 163 147 143 147 153 160 166 165 161 167 172 166 179 207 223 243 266 275 277 286 303 299 281 262 237 217 208 209 208 199 196 199 204 240 284 298 302 297 281 279 283 283 286 291 290 287 283 278 279 282 282 284 288 292
260 131 74 26 300 226 142 48 22 8 6 2 358 359 356 349 345 335 314 302 297 289 284 281 268 249 232 204 181 183 184 172 163 160 147 141 148 159 168 181 193 193 197 205 209 227 250 268 280 290 296 295 298 304 296 276 254 228 215 207 205 210 218 229 229 240 274 291 288 282 278 277 285 290 286 283 286 289 291 292 289 285 284 283 283 285 286
326 60 51 20 351 334 351 360 355 354 358 354 349 354 354 348 345 339 328 319 307 286 284 294 275 232 206 198 190 174 167 161 157 157 145 131 141 186 211 205 204 210 219 228 243 262 276 285 287 294 306 308 305 300 285 270 258 233 217 210 218 235 249 255 253 255 269 276 272 277 281 277 277 284 287 288 290 293 294 294 292 288 285 283 283 285 287
357 42 37 17 351 333 326 331 335 340 350 350 345 345 345 342 339 336 333 326 306 273 243 257 249 217 186 192 193 162 160 171 180 187 192 189 194 200 191 177 189 207 215 219 246 266 271 274 282 293 307 308 303 298 286 273 257 238 226 225 241 257 264 265 261 254 256 268 276 280 281 275 268 274 286 291 294 296 297 298 296 291 288 287 286 287 288
333 358 4 351 331 317 311 312 312 312 330 344 337 332 333 333 331 328 326 319 298 264 232 218 222 221 204 202 200 178 171 182 193 201 203 195 191 191 181 168 184 213 228 235 250 257 259 269 284 293 300 300 292 285 277 267 256 249 243 242 252 263 265 261 256 253 257 268 271 268 272 278 278 281 286 287 289 292 296 300 303 300 297 297 294 290 289
321 326 323 311 301 295 294 295 294 298 318 330 324 320 320 320 319 317 314 307 289 256 236 223 219 230 236 223 205 188 179 184 196 198 194 188 185 183 173 164 172 198 217 225 227 224 218 237 275 289 299 295 279 275 273 268 264 258 252 251 256 262 261 255 251 253 259 263 264 264 269 274 280 285 288 287 284 284 290 301 309 309 309 310 307 300 296
311 309 305 300 294 289 293 301 304 308 314 314 310 309 309 308 307 305 300 293 281 257 243 237 232 228 225 220 214 203 194 195 197 192 189 191 190 178 167 163 166 170 175 188 209 232 257 270 277 282 264 259 274 284 282 272 269 263 254 256 260 265 266 262 253 251 255 256 257 262 265 268 273 275 277 282 283 280 278 285 298 309 318 326 330 326 318
300 296 295 297 302 307 310 308 304 304 304 304 304 305 303 299 296 295 291 286 277 260 247 243 240 230 218 219 223 212 196 195 195 188 184 188 182 171 166 165 165 162 163 183 235 273 274 259 251 239 246 265 283 289 278 269 273 267 257 260 265 266 267 265 258 254 254 247 245 249 252 260 266 266 264 268 274 274 264 256 274 311 321 325 337 344 335
287 299 311 311 311 309 304 298 298 298 298 300 302 302 300 296 291 289 288 284 276 263 249 241 241 236 224 221 225 220 207 206 201 184 178 180 173 167 167 165 161 159 160 174 217 248 236 230 225 228 254 275 288 285 270 268 267 259 255 262 265 258 250 244 242 244 239 233 247 258 261 262 263 262 262 256 243 226 221 217 205 206 324 326 338 345 330
309 318 315 307 303 301 297 297 299 300 301 303 302 300 299 296 291 286 285 283 277 271 261 248 244 242 229 218 222 225 222 216 200 176 167 166 162 163 166 163 159 159 161 170 185 198 212 230 234 235 260 280 286 276 271 266 254 249 253 257 258 252 241 230 229 235 232 238 255 262 261 256 247 233 223 220 204 191 192 195 193 187 189 234 261 257 266
314 310 304 302 302 301 299 300 303 305 306 306 304 301 299 297 294 290 289 285 275 269 269 264 251 242 235 234 236 234 224 208 187 168 162 165 169 172 174 169 167 172 177 179 185 201 226 244 245 250 268 277 269 261 265 259 246 249 253 249 254 258 245 231 228 229 226 236 255 259 248 235 225 201 170 166 177 182 188 198 212 222 227 246 259 260 267
306 304 302 302 302 300 300 303 306 305 303 301 300 300 298 297 295 291 290 288 277 266 266 264 244 227 228 241 247 237 214 192 179 168 166 175 183 185 181 176 174 181 185 183 187 203 225 237 242 258 275 277 264 254 258 259 254 253 248 243 251 262 253 237 229 227 229 235 243 245 230 218 210 182 157 160 181 197 211 243 275 273 263 272 274 269 271
302 300 299 303 304 302 304 304 302 300 300 298 296 296 293 291 289 287 286 286 283 271 258 245 230 224 227 232 232 214 184 171 166 164 172 184 188 181 173 168 170 177 184 189 189 189 199 217 234 255 269 267 257 251 251 256 257 249 241 241 248 253 251 237 218 214 223 222 213 212 212 205 199 191 183 180 180 169 7 318 306 300 297 297 286 277 274
293 292 293 297 297 296 297 299 298 297 298 296 295 294 294 291 288 287 286 284 282 276 262 241 228 222 218 211 201 187 175 165 156 156 169 179 180 174 168 166 170 175 178 178 176 174 186 210 227 243 251 249 252 249 238 250 257 240 219 222 235 239 241 233 212 204 211 212 211 217 217 203 193 199 202 191 169 148 169 245 263 268 270 270 277 282 273
291 291 291 291 291 291 292 293 295 295 296 297 296 294 293 293 290 287 287 286 283 282 275 251 220 209 208 204 199 199 196 175 155 154 164 172 173 170 166 165 170 173 167 163 166 170 181 203 219 230 229 213 216 228 220 221 233 231 223 226 234 228 218 219 214 206 203 206 213 220 218 206 202 210 208 189 188 234 235 247 257 259 261 271 284 286 272
290 290 290 289 289 289 287 287 290 292 292 293 294 292 291 291 288 284 284 286 284 281 274 245 210 205 209 207 202 198 192 172 157 155 157 159 159 155 152 156 163 161 153 154 161 169 192 214 220 220 214 202 219 238 229 212 215 237 249 246 237 227 216 215 217 216 216 217 219 219 217 215 217 221 220 219 242 246 243 245 250 249 251 263 275 275 270
284 283 282 281 281 281 281 282 285 288 289 288 288 287 285 284 281 278 279 280 277 269 252 221 209 207 199 184 174 169 162 156 153 149 144 144 146 146 149 160 164 160 160 163 166 178 208 223 218 214 216 218 225 242 240 225 222 242 258 223 200 213 219 208 214 222 225 224 220 215 214 215 216 223 232 235 229 232 239 244 244 243 241 243 253 256 251
284 281 279 277 276 275 277 278 280 284 286 285 283 281 279 276 272 269 268 264 256 242 226 213 203 190 174 161 154 153 152 150 149 145 142 144 149 154 161 168 170 173 178 177 175 187 212 219 203 191 195 200 206 236 237 213 198 204 219 198 189 220 240 219 222 232 225 227 233 233 236 241 232 228 236 242 232 230 241 241 235 233 234 234 241 246 241
284 281 279 278 276 274 275 277 278 280 281 281 280 278 273 267 262 259 254 243 227 214 203 190 177 171 166 159 155 156 157 153 150 150 151 156 162 162 162 168 179 187 188 189 199 208 187 152 153 159 149 147 167 200 187 174 161 150 201 213 214 243 243 230 235 238 230 231 237 236 237 243 239 228 227 238 242 241 241 236 229 227 233 238 238 233 227
284 281 278 276 275 273 272 273 275 278 279 278 278 277 270 255 244 235 217 197 187 184 179 171 164 161 157 151 148 149 150 150 155 159 161 167 171 167 160 169 187 189 181 185 202 191 148 136 144 157 147 152 176 196 194 188 181 173 212 226 229 239 239 231 234 239 238 240 245 242 240 248 249 236 226 238 248 247 238 231 225 221 224 232 232 223 216
280 279 278 277 276 274 273 273 276 279 278 274 272 268 254 229 212 193 172 164 163 162 161 160 159 158 158 160 166 178 192 201 200 199 195 191 185 173 162 167 179 176 175 185 190 165 139 137 150 162 158 180 210 220 220 211 204 224 256 254 236 230 234 235 237 242 245 246 249 248 244 248 252 245 235 241 248 246 234 227 223 217 219 224 225 220 216
279 278 278 279 279 278 277 278 278 275 269 264 257 243 223 203 187 172 162 156 156 157 160 164 167 168 169 175 186 195 198 196 195 196 195 194 190 178 169 172 182 187 190 194 186 154 134 137 166 177 175 194 227 230 222 206 208 246 264 264 245 237 242 242 242 246 250 251 252 253 251 248 248 246 241 240 241 238 235 232 223 216 216 219 218 217 217
280 278 275 275 277 277 274 273 272 266 256 245 225 204 190 179 171 166 159 153 153 162 174 181 177 167 162 161 165 169 171 175 179 180 180 186 192 187 179 181 190 192 187 180 164 151 151 168 197 203 201 211 233 244 243 237 239 248 252 251 250 252 253 250 248 251 253 252 252 254 253 247 242 241 240 238 237 235 233 229 220 215 216 217 213 213 212
284 283 279 276 275 271 264 260 264 264 253 226 193 173 165 161 163 164 161 156 154 159 168 174 169 163 163 167 173 178 180 179 179 178 174 171 175 180 179 179 181 177 169 161 159 168 178 198 228 236 231 236 250 260 260 250 247 246 245 249 254 255 252 250 250 252 251 248 247 248 248 243 238 236 235 232 230 228 225 220 216 214 214 212 210 209 208
280 279 278 278 277 272 264 262 267 262 240 201 177 169 166 166 164 159 159 163 162 158 160 163 163 163 167 171 175 182 185 183 182 181 175 168 168 172 173 171 172 170 164 156 154 167 190 221 251 263 258 261 273 280 264 241 248 252 247 246 250 251 250 249 249 247 247 246 243 241 241 240 236 231 226 224 223 222 219 215 214 213 211 210 212 213 210
284 282 280 277 271 263 258 267 265 244 223 213 191 168 160 162 164 162 163 165 162 160 163 165 164 167 171 173 175 180 182 183 186 187 180 176 175 170 162 166 181 179 163 149 160 186 210 231 247 273 304 302 301 288 253 249 256 260 254 247 247 250 250 248 245 244 244 244 240 236 235 234 230 225 221 219 218 218 217 213 212 214 213 210 209 209 207
297 296 289 280 269 254 242 247 253 244 243 253 248 214 190 177 164 158 157 156 152 154 159 160 162 170 176 177 180 181 176 174 178 180 176 177 175 165 160 177 192 181 155 148 184 203 210 200 116 89 16 28 82 123 265 276 271 270 268 258 249 249 247 244 242 241 241 238 235 232 229 227 224 221 220 218 215 214 215 214 212 214 215 213 213 216 217
315 305 291 284 281 270 250 248 260 261 254 248 244 242 239 221 185 166 159 152 150 154 160 161 170 181 184 186 194 194 183 178 179 175 170 171 170 163 166 184 189 171 153 170 203 209 216 238 53 64 34 55 91 144 284 288 279 278 281 270 254 250 247 242 240 239 237 233 231 228 226 225 223 220 220 221 218 216 217 217 216 216 217 218 221 225 225
340 334 318 303 297 282 262 259 268 267 256 244 233 224 219 208 189 173 161 152 155 168 176 177 184 191 191 193 201 201 190 188 191 183 175 175 176 175 184 199 200 179 167 188 211 217 226 253 285 297 9 54 77 271 281 281 274 276 280 273 260 253 247 238 234 230 228 228 229 225 224 225 223 220 220 220 216 215 217 216 214 216 216 214 216 222 221
3 2 354 339 327 286 256 256 258 252 242 225 207 203 201 191 176 167 159 155 166 182 185 182 189 197 198 199 203 200 194 196 198 188 180 181 184 185 192 206 217 204 176 182 216 234 239 250 270 281 292 333 304 277 280 279 274 275 277 270 259 250 243 238 232 223 216 220 226 225 224 225 223 220 219 217 215 217 218 214 216 222 221 214 208 213 216
55 51 46 61 81 86 92 116 191 214 201 177 180 203 213 199 171 166 167 170 182 192 187 183 190 200 203 201 199 200 200 199 195 189 190 196 199 196 198 210 224 222 195 187 226 250 249 249 262 270 266 249 254 275 278 273 269 272 273 265 255 247 245 245 239 228 222 224 229 227 225 225 223 221 221 220 220 221 220 216 219 229 230 223 216 215 216
56 45 40 70 88 86 86 101 114 142 163 157 164 204 251 264 163 168 176 186 206 216 207 200 203 213 217 212 207 212 219 213 200 194 199 204 205 202 202 207 216 220 215 210 226 243 244 243 252 256 246 231 246 275 284 279 274 272 266 255 247 244 244 244 238 228 225 229 233 232 229 227 225 225 226 225 224 224 225 222 223 226 229 225 219 214 212